Location: Observatoire
(46.1952°N, 5.3391°E)
Time: 15:39:42
(UTC+01:00)

Tiros 1 - Pass Details

Date: 25 February 2026
Orbit: 618 x 650 km, 48.4° (Epoch: 13 March)

Event Time Altitude Azimuth Distance (km) Brightness Sun altitude
Exits shadow 05:09:14 - 173° (S) 2,194 9.8 -24.2°
Reaches altitude 10° 05:10:03 10° 164° (SSE) 2,015 9.7 -24.1°
Maximum altitude 05:12:21 14° 135° (SE) 1,778 9.8 -23.7°
Drops below altitude 10° 05:14:40 10° 104° (ESE) 2,011 10.5 -23.3°
Sets 05:18:02 0° 79° (E) 2,915 12.0 -22.7°
